Regional Weather Roundup
Issued by NWS Sioux Falls, SD

Home | Current Version | Previous Version | Graphics & Text | Print | Product List | Glossary On
Versions: 1 2 3 4 5 6 7 8 9 10 11 12 13 14 15 16 17 18 19 20 21 22 23 24 25 26 27 28 29 30 31 32 33 34 35 36 37 38 39 40 41 42 43 44 45 46 47 48 49 50
000
ASUS43 KFSD 030302
RWRFSD

WEATHER ROUNDUP FOR SE SOUTH DAKOTA/SW MINNESOTA/NW IOWA
NATIONAL WEATHER SERVICE SIOUX FALLS SD
1000 PM CDT THU JUL 02 2015

NOTE: "FAIR" INDICATES FEW OR NO CLOUDS BELOW 12,000 FEET WITH NO
SIGNIFICANT WEATHER AND OR OBSTRUCTIONS TO VISIBILITY.


SDZ038>040-050-052>070-030400-
SOUTHEAST SOUTH DAKOTA

CITY           SKY/WX    TMP DP  RH WIND       PRES   REMARKS
BROOKINGS      CLEAR     63  54  72 S5        30.01R
CHAMBERLAIN    PTCLDY    65  64  96 CALM      29.99R
HURON          LGT RAIN  65  59  81 S6        29.98R
MADISON        FAIR      61  55  82 W5        30.01R
MITCHELL       CLEAR     64  60  87 S5        30.00R
SIOUX FALLS    PTCLDY    64  59  83 SW3       29.99R
WINNER         FAIR      70  62  76 SE5       29.99R
YANKTON        CLOUDY    64  59  82 SE3       29.98S
$$

MNZ071-072-080-081-089-090-097-098-030400-
SOUTHWEST MINNESOTA

CITY           SKY/WX    TMP DP  RH WIND       PRES   REMARKS
FAIRMONT       MOCLDY    64  48  55 SW5       30.00R
JACKSON        PTCLDY    63  55  77 S3        30.01S
LUVERNE        CLEAR     63  55  77 CALM      30.00S
MARSHALL       CLEAR     63  52  67 S6        29.98R
MONTEVIDEO     CLEAR     63  52  67 CALM      29.98S
PIPESTONE      CLEAR     63  54  72 S5        30.01R
REDWOOD FALLS  CLEAR     65  55  70 SE3       29.98R
TRACY          CLEAR     62  54  74 SW6       30.00R
WINDOM         PTCLDY    63  54  72 CALM      30.01R
WORTHINGTON    PTCLDY    63  52  67 S5        30.01R
$$

IAZ001>003-012>014-020>022-031-032-NEZ013-014-SDZ071-030400-
NORTHWEST IOWA

CITY           SKY/WX    TMP DP  RH WIND       PRES   REMARKS
DENISON        CLOUDY    63  57  82 CALM      29.97R
ESTHERVILLE    MOCLDY    58  53  84 CALM      30.00S
SIOUX CITY     CLOUDY    65  56  72 NE6       29.99R
SPENCER        PTCLDY    61  54  77 E3        30.01R
$$

ABBREVIATIONS USED IN REMARKS
   TC - TEMPERATURE IN CELSIUS
  WCI - WIND CHILL INDEX
   HX - HEAT INDEX
  VSB - VISIBILITY



USA.gov is the U.S. government's official web portal to all federal, state and local government web resources and services.